Regional Weather Roundup
Issued by NWS

Home | Current Version | Previous Version | Text Only | Print | Product List | Glossary On
Versions: 1 2 3 4 5 6 7 8 9 10 11 12 13 14 15 16 17 18 19 20 21 22 23 24 25 26 27 28 29 30 31 32 33 34 35 36 37 38 39 40 41 42 43 44 45 46 47 48 49 50
000
ASUS43 KLMK 061410
RWRKY
KENTUCKY REGIONAL WEATHER ROUNDUP
NATIONAL WEATHER SERVICE LOUISVILLE KY
900 AM EST FRI MAR 06 2015

NOTE "FAIR" INDICATES FEW OR NO CLOUDS BELOW 12,000 FEET
WITH NO SIGNIFICANT WEATHER AND/OR OBSTRUCTIONS TO VISIBILITY.

KYZ001>023-026-027-061>063-070>075-061500-
WESTERN AND SOUTH CENTRAL KENTUCKY

CITY           SKY/WX    TMP DP  RH WIND       PRES   REMARKS
PADUCAH        MOSUNNY    8   5  87 SW3       30.61R
HENDERSON      SUNNY      3   1  92 CALM      30.60S
OWENSBORO      MOSUNNY    5   1  83 CALM      30.60R
HOPKINSVILLE   PTSUNNY    5   1  85 CALM      30.58R
BOWLING GREEN  MOSUNNY    8   5  87 CALM      30.60R FOG
GLASGOW        MOSUNNY    8   5  89 CALM      30.58R FOG
$$

KYZ024-025-028>034-038-045-046-053-061500-
NORTH CENTRAL KENTUCKY

CITY           SKY/WX    TMP DP  RH WIND       PRES   REMARKS
LOUISVILLE/SDF MOSUNNY   13   8  81 E3        30.59R HAZE
LOUISVILLE/LOU MOSUNNY   12   8  84 SE5       30.59R WCI   4
FORT KNOX      PTSUNNY    4   0  84 CALM      30.55R
$$

KYZ035>037-039>044-047>052-055>060-089>105-061500-
NORTHEAST KENTUCKY

CITY           SKY/WX    TMP DP  RH WIND       PRES   REMARKS
LEXINGTON      MOSUNNY    8   6  92 S6        30.55R WCI  -2
COVINGTON      MOSUNNY    8   6  92 S5        30.55R WCI   0
FRANKFORT      PTSUNNY    2   0  91 CALM      30.56R
$$

KYZ054-064>069-076>088-106>120-061500-
SOUTHEAST KENTUCKY

CITY           SKY/WX    TMP DP  RH WIND       PRES   REMARKS
JACKSON        SUNNY     14  11  87 CALM      30.50R
LONDON         SUNNY     13   7  77 N5        30.52R WCI   5
SOMERSET       MOSUNNY   10  10 100 CALM      30.57S
MIDDLESBORO    SUNNY     16  12  86 CALM      30.52R
MONTICELLO     LGT SNOW   7   3  85 CALM      30.58R FOG
$$



USA.gov is the U.S. government's official web portal to all federal, state and local government web resources and services.